Regional Weather Roundup
Issued by NWS

Home | Current Version | Previous Version | Graphics & Text | Print | Product List | Glossary On
Versions: 1 2 3 4 5 6 7 8 9 10 11 12 13 14 15 16 17 18 19 20 21 22 23 24 25 26 27
000
ASUS45 KSLC 230810
RWRUT

UTAH REGIONAL WEATHER ROUNDUP
NATIONAL WEATHER SERVICE SALT LAKE CITY UT
100 AM MST FRI FEB 23 2018

UTZ001>011-023>025-230900-

NORTHERN UTAH

CITY           SKY/WX    TMP DP  RH WIND       PRES   REMARKS
BRIGHAM CITY   CLOUDY    27  24  89 N5        29.97S WCI  21
HILL AFB       CLOUDY    24  19  80 NE3       29.93S
LOGAN          LGT SNOW  21  15  78 CALM      29.97F
OGDEN          CLOUDY    26  21  81 CALM      29.94S
SALT LAKE CITY CLOUDY    30  24  78 S5        29.94F WCI  25
TOOELE VALLEY  LGT SNOW  27  27 100 CALM      29.95S
WENDOVER       NOT AVBL
HEBER CITY       N/A     19  16  86 CALM      29.90S
WEST JORDAN    CLOUDY    26  24  95 SW6       29.94S WCI  19

$$

UTZ011>015-024>027-230900-

CENTRAL/NORTHEAST UTAH

CITY           SKY/WX    TMP DP  RH WIND       PRES   REMARKS
PROVO AIRPORT  MOCLDY    25  19  78 E3        29.95S
MOAB/CANYONLAN MOCLDY    31  13  47 CALM      29.95S
DELTA          CLOUDY    21  14  73 NW5       29.92R WCI  15
PRICE          PTCLDY    20  19  96 NE8       29.91F WCI  10
RICHFIELD      MOCLDY    23  23 100 CALM      29.92F
VERNAL         LGT SNOW  22  19  89 NW6       29.97F VSB 3/4 WCI  14

$$

UTZ013>016-019>022-027-230900-

SOUTHERN UTAH

CITY           SKY/WX    TMP DP  RH WIND       PRES   REMARKS
BRYCE CANYON   SNOW      19  18  95 MISG      29.87F VSB 1/2
CEDAR CITY     LGT SNOW  26  25  96 SW9       29.88F FOG     WCI  17
MILFORD        LGT SNOW  27  22  81 S15       29.89S WCI  15
ST GEORGE      PTSUNNY   33  32  96 SE8       29.98S WCI  26
HANKSVILLE     CLOUDY    32  12  43 MISG      29.98S
KANAB          FOG       30  28  93 SW7       30.00S VSB 1/2 WCI  23
BLANDING         N/A     21  11  64 E3        30.06S

$$

REGIONAL REPORTS     COLORADO/ARIZONA

CITY           SKY/WX    TMP DP  RH WIND       PRES   REMARKS
CRAIG, CO      CLOUDY    21  16  81 E7        29.96F WCI  12
GRAND JUNCTION MOCLDY    28  25  88 E12       29.99F WCI  18
RIFLE, CO      LGT SNOW  26  26 100 CALM      30.00S VSB 3/4
MONTROSE, CO   CLOUDY    29  17  61 SW8       30.03R WCI  21
CORTEZ, CO     CLOUDY    30   7  37 S12       30.04R WCI  20
COLORADO CITY    N/A     32  28  86 S8        29.97S WCI  25
PAGE, AZ       CLOUDY    36  21  54 N3        29.96F
GRAND CANYON   FLURRIES  27  18  69 S16G25    29.96F WCI  15
KINGMAN, AZ    MOCLDY    42  26  53 SW21G30   30.02R
FLAGSTAFF, AZ  MOCLDY    23  16  74 SW13G23   30.00F WCI  11

$$

REGIONAL REPORTS    NEVADA/IDAHO/WYOMING

CITY           SKY/WX    TMP DP  RH WIND       PRES   REMARKS
LAS VEGAS, NV  PTCLDY    45   9  23 SW8       29.95R
ELY, NY        MOCLDY    16  11  80 CALM      29.88S
ELKO, NV       MOCLDY    15  11  83 E6        29.93S WCI   6
POCATELLO, ID  CLOUDY    21  16  81 SW8       30.02S WCI  11
BURLEY, ID     PTCLDY    11   8  88 SW7       30.02S WCI   0
FORT BRIDGER,    N/A      1   0  92 CALM      29.93
EVANSTON, WY   LGT SNOW   9   6  88 E8        29.87S FOG     WCI  -3
ROCK SPRINGS,  PTCLDY     9   3  77 NE3       29.92F

$$




USA.gov is the U.S. government's official web portal to all federal, state and local government web resources and services.